sat.trackr.live / text

‹ back to catalog

GPS BIIR-8 (PRN 16)

NORAD 27663 · 2003-005A

PAYLOAD ACTIVE UNKNOWN

§ Identity

Operator
Country
US
Launch date
2003-01-29
Launch site
AFETR
Launch vehicle
Mass (kg)
RCS (m²)
10.00

Purposes: earth_obs, nav

External: N2YO · Heavens-Above · Gunter

§ Orbital elements

Epoch: 2026-09-15T20:43:38.724960Z

Period
718.00 min
Inclination
54.8684°
Eccentricity
0.0150464
Mean motion
2.00555709 rev/d
Perigee alt
19,783.3 km
Apogee alt
20,582.6 km
Semi-major
26,561.0 km
B*
0.0000e+0
RAAN
211.3689°
Arg perigee
53.6507°
Mean anomaly
317.6033°
Rev number
17,313

§ Raw data

GPS BIIR-8  (PRN 16)1 27663U 03005A   26258.86364265  .00000023  00000+0  00000+0 0  99982 27663  54.8684 211.3689 0150464  53.6507 317.6033  2.00555709173138

JSON: /api/v1/satellites/27663 · /tle

For live sub-satellite position, see the globe view (requires WebGL).

§ Visibility from observer

Set your observer location to see the next 7 days of passes ≥ 10°. The values pass through the URL so the page stays shareable.

No JS? Fill the form by hand. The geolocation button needs JavaScript.